DW2513 Weather Reports


Display with metric or nautical units.
time (UTC)temp
F
wind
direction
speed
MPH
gust
MPH
rain 1hr
in
rain 24hr
in
rain mn
in
humidity
%
barometer
mb
20260831022306 68 101 0.0 0.0 0.00 0.00 0.00 69 1014.1
20260831021805 68 101 0.0 0.0 0.00 0.00 0.00 69 1014.1
20260831021304 68 101 0.0 0.0 0.00 0.00 0.00 68 1014.1
20260831015805 68 143 0.0 0.0 0.00 0.00 0.00 68 1014.1
20260831015306 69 143 0.0 0.0 0.00 0.00 0.00 67 1014.1
20260831010805 68 144 0.0 0.0 0.00 0.00 0.00 70 1012.5
20260831004805 68 144 0.0 0.0 0.00 0.00 0.00 71 1012.5
20260831004305 68 144 0.0 0.0 0.00 0.00 0.00 71 1012.5
20260831002805 69 144 0.0 0.0 0.00 0.00 0.00 70 1012.5
20260831001805 69 144 0.0 0.0 0.00 0.00 0.00 69 1012.5
20260831001305 70 144 0.0 1.0 0.00 0.00 0.00 67 1012.5
20260831000805 70 145 0.0 0.0 0.00 0.00 0.00 67 1012.5
20260830234805 69 0 0.0 0.0 0.00 0.00 0.00 68 1012.5
20260830234304 69 0 0.0 0.0 0.00 0.00 0.00 68 1012.5
20260830230304 69 0 0.0 0.0 0.00 0.00 0.00 71 1012.5
20260830225306 69 0 0.0 0.0 0.00 0.00 0.00 71 1012.5
20260830224804 69 0 0.0 0.0 0.00 0.00 0.00 70 1012.1
20260830223304 70 0 0.0 0.0 0.00 0.00 0.00 69 1012.1
20260830222804 70 0 0.0 0.0 0.00 0.00 0.00 69 1012.1
20260830222306 70 0 0.0 0.0 0.00 0.00 0.00 70 1012.1
20260830213805 71 0 0.0 0.0 0.00 0.00 0.00 64 1012.1
20260830213305 72 0 0.0 0.0 0.00 0.00 0.00 63 1012.1
20260830212306 71 0 0.0 0.0 0.00 0.00 0.00 62 1012.5
20260830211804 71 0 0.0 0.0 0.00 0.00 0.00 63 1012.5
20260830211304 71 0 0.0 0.0 0.00 0.00 0.00 63 1012.5
20260830210305 71 0 0.0 0.0 0.00 0.00 0.00 63 1012.5
20260830205306 72 0 0.0 0.0 0.00 0.00 0.00 64 1012.5
20260830204805 72 0 0.0 0.0 0.00 0.00 0.00 64 1012.5
20260830203805 72 0 0.0 0.0 0.00 0.00 0.00 64 1012.4
20260830203304 72 0 0.0 0.0 0.00 0.00 0.00 62 1013.0
20260830202804 71 0 0.0 0.0 0.00 0.00 0.00 62 1013.0
20260830202306 71 0 0.0 0.0 0.00 0.00 0.00 63 1013.0
20260830201305 71 0 0.0 0.0 0.00 0.00 0.00 62 1013.0
20260830195804 72 0 0.0 0.0 0.00 0.00 0.00 60 1013.0
20260830195305 72 0 0.0 0.0 0.00 0.00 0.00 60 1013.0
20260830192804 73 0 0.0 0.0 0.00 0.00 0.00 59 1013.6
20260830192305 73 0 0.0 0.0 0.00 0.00 0.00 59 1013.6
20260830190305 72 5 0.0 0.0 0.00 0.00 0.00 61 1013.6
20260830184804 72 5 0.0 0.0 0.00 0.00 0.00 60 1014.6
20260830183305 71 5 0.0 0.0 0.00 0.00 0.00 61 1014.6
20260830181804 70 5 0.0 0.0 0.00 0.00 0.00 67 1014.6
20260830180305 69 5 0.0 0.0 0.00 0.00 0.00 67 1014.6
20260830175805 69 5 0.0 0.0 0.00 0.00 0.00 67 1014.6
20260830175306 69 5 0.0 0.0 0.00 0.00 0.00 68 1015.2
20260830174805 69 5 0.0 0.0 0.00 0.00 0.00 68 1015.2
20260830173804 69 5 0.0 0.0 0.00 0.00 0.00 67 1015.2
20260830173304 69 5 0.0 0.0 0.00 0.00 0.00 68 1015.2
20260830170805 68 5 0.0 0.0 0.00 0.00 0.00 70 1015.2
20260830170304 68 5 0.0 0.0 0.00 0.00 0.00 70 1015.2
20260830165306 67 5 0.0 0.0 0.00 0.00 0.00 70 1015.2
20260830164805 67 5 0.0 0.0 0.00 0.00 0.00 71 1015.2
20260830164304 67 5 0.0 0.0 0.00 0.00 0.00 71 1015.7
20260830162306 67 5 0.0 0.0 0.00 0.00 0.00 71 1015.7
20260830161804 67 5 0.0 0.0 0.00 0.00 0.00 71 1015.7
20260830160305 67 5 0.0 0.0 0.00 0.00 0.00 70 1015.7
20260830155804 67 5 0.0 0.0 0.00 0.00 0.00 71 1016.2
20260830154804 66 14 0.0 2.0 0.00 0.00 0.00 72 1016.2
20260830154304 66 315 0.0 0.0 0.00 0.00 0.00 72 1016.2
20260830152804 66 312 0.0 0.0 0.00 0.00 0.00 72 1016.2
20260830151305 66 312 0.0 0.0 0.00 0.00 0.00 70 1016.2
20260830145805 66 312 0.0 0.0 0.00 0.00 0.00 69 1016.2
20260830143804 66 312 0.0 0.0 0.00 0.00 0.00 68 1016.2
20260830143310 66 312 0.0 0.0 0.00 0.00 0.00 69 1016.2
20260830141305 66 66 0.0 0.0 0.00 0.00 0.00 70 1016.2
20260830140305 65 66 0.0 0.0 0.00 0.00 0.00 69 1016.2
20260830135805 65 83 0.0 1.0 0.00 0.00 0.00 70 1016.1
20260830135306 65 84 0.0 0.0 0.00 0.00 0.00 71 1016.1
20260830133304 65 84 0.0 0.0 0.00 0.00 0.00 69 1016.1
20260830131804 65 126 0.0 0.0 0.00 0.00 0.00 69 1016.2
20260830130305 64 221 0.0 1.0 0.00 0.00 0.00 72 1016.2
20260830125805 63 223 0.0 0.0 0.00 0.00 0.00 73 1016.2
20260830124805 63 223 0.0 0.0 0.00 0.00 0.00 73 1016.6
20260830124304 63 223 0.0 0.0 0.00 0.00 0.00 74 1016.6
20260830123804 62 223 0.0 0.0 0.00 0.00 0.00 74 1016.6
20260830123304 62 223 0.0 1.0 0.00 0.00 0.00 73 1016.6
20260830121305 61 269 0.0 0.0 0.00 0.00 0.00 76 1016.6
20260830115306 59 269 0.0 0.0 0.00 0.00 0.00 78 1016.6
20260830114805 59 269 0.0 0.0 0.00 0.00 0.00 79 1016.7
20260830114304 58 269 0.0 0.0 0.00 0.00 0.00 79 1016.7
20260830113805 58 269 0.0 0.0 0.00 0.00 0.00 79 1016.7
20260830113304 58 269 0.0 0.0 0.00 0.00 0.00 80 1016.7
20260830112804 57 269 0.0 0.0 0.00 0.00 0.00 81 1016.7
20260830112306 57 269 0.0 0.0 0.00 0.00 0.00 82 1016.7
20260830111804 56 269 0.0 0.0 0.00 0.00 0.00 82 1016.8
20260830111305 56 269 0.0 0.0 0.00 0.00 0.00 81 1016.7
20260830110804 56 269 0.0 0.0 0.00 0.00 0.00 81 1016.7
20260830105805 56 269 0.0 0.0 0.00 0.00 0.00 81 1016.7
20260830104304 56 269 0.0 0.0 0.00 0.00 0.00 81 1016.7
20260830102307 56 269 0.0 0.0 0.00 0.00 0.00 81 1016.7
20260830101804 56 269 0.0 0.0 0.00 0.00 0.00 81 1016.7
20260830100804 56 269 0.0 0.0 0.00 0.00 0.00 81 1016.7
20260830100304 56 269 0.0 0.0 0.00 0.00 0.00 81 1016.7
20260830094805 56 269 0.0 0.0 0.00 0.00 0.00 81 1016.8
20260830092306 55 269 0.0 0.0 0.00 0.00 0.00 81 1017.1
20260830091304 55 269 0.0 0.0 0.00 0.00 0.00 81 1017.1
20260830090804 55 269 0.0 0.0 0.00 0.00 0.00 81 1017.1
20260830085804 55 269 0.0 0.0 0.00 0.00 0.00 81 1017.1
20260830084305 55 269 0.0 0.0 0.00 0.00 0.00 81 1017.1
20260830082306 55 269 0.0 0.0 0.00 0.00 0.00 81 1017.1
20260830081805 55 269 0.0 0.0 0.00 0.00 0.00 81 1017.1
20260830081305 55 269 0.0 0.0 0.00 0.00 0.00 81 1017.1
20260830080304 55 269 0.0 0.0 0.00 0.00 0.00 81 1017.2
20260830075805 55 269 0.0 0.0 0.00 0.00 0.00 81 1017.2
20260830073305 55 269 0.0 0.0 0.00 0.00 0.00 81 1017.2
20260830071804 55 269 0.0 0.0 0.00 0.00 0.00 81 1017.1
20260830071304 55 269 0.0 0.0 0.00 0.00 0.00 81 1017.1
20260830064304 55 269 0.0 0.0 0.00 0.00 0.00 81 1017.2
20260830063804 55 269 0.0 0.0 0.00 0.00 0.00 81 1017.2
20260830063304 55 269 0.0 0.0 0.00 0.00 0.00 81 1017.2
20260830062805 55 269 0.0 0.0 0.00 0.00 0.00 81 1017.2
20260830062306 55 269 0.0 0.0 0.00 0.00 0.00 81 1017.2
20260830061305 55 269 0.0 0.0 0.00 0.00 0.00 80 1017.2
20260830055306 55 269 0.0 0.0 0.00 0.00 0.00 80 1017.4
20260830054805 55 269 0.0 0.0 0.00 0.00 0.00 80 1017.4
20260830054304 55 269 0.0 0.0 0.00 0.00 0.00 80 1017.4
20260830053305 56 269 0.0 0.0 0.00 0.00 0.00 79 1017.4
20260830051304 56 269 0.0 0.0 0.00 0.00 0.00 79 1017.4
20260830050805 56 269 0.0 0.0 0.00 0.00 0.00 79 1017.4
20260830050304 56 269 0.0 0.0 0.00 0.00 0.00 78 1017.4
20260830045804 56 269 0.0 0.0 0.00 0.00 0.00 78 1017.4
20260830044804 56 269 0.0 0.0 0.00 0.00 0.00 78 1017.4
20260830042306 57 269 0.0 0.0 0.00 0.00 0.00 77 1017.4
20260830040821 57 269 0.0 0.0 0.00 0.00 0.00 76 1017.4
20260830035306 57 269 0.0 0.0 0.00 0.00 0.00 76 1017.4
20260830034304 58 269 0.0 0.0 0.00 0.00 0.00 75 1017.4
20260830033805 58 269 0.0 0.0 0.00 0.00 0.00 75 1017.4
20260830030805 59 269 0.0 0.0 0.00 0.00 0.00 73 1017.4